#timestamp,LO_Frequency,Hit,StdDev 
1658397615.8,286047004.0,N
1658397635.7,286047002.4,N
1658397655.5,286047001.2,N
1658397675.3,286047000.5,N
1658397695.2,286046999.4,N
1658397715.0,286046999.5,N
1658397715.9,286046999.5,N
1658397735.8,286046998.8,N
1658397755.6,286046998.9,N
1658397775.4,286047001.1,N
1658397795.3,286046998.2,N
1658397815.1,286047000.4,N
1658397835.9,286047001.0,N
1658397855.7,286046999.5,N
1658397875.5,286046999.6,N
1658397895.4,286046998.8,N
1658397915.2,286046996.5,N
1658397935.1,286046997.4,N
1658397936.0,286046997.4,N
1658397955.8,286046997.9,N
1658397975.6,286046997.1,N
1658397995.5,286046995.8,N
1658398015.3,286046996.3,N
1658398035.1,286046993.3,N
1658398055.9,286046993.3,N
1658398075.7,286046993.7,N
1658398095.6,286046995.9,N
1658398115.4,286046996.1,N
1658398135.2,286046995.2,N
1658398155.1,286046999.6,N
1658398156.0,286046999.6,N
1658398175.8,286047001.1,N
1658398195.7,286046999.9,N
1658398215.5,286047005.9,N
1658398235.3,286047007.5,N
1658398255.2,286047003.5,N
1658398275.0,286047003.9,N
1658398275.9,286047003.9,N
1658398295.8,286047004.0,N
1658398315.6,286047002.0,N
1658398335.4,286047000.5,N
1658398355.3,286046999.7,N
1658398375.1,286047000.9,N
1658398395.8,286047000.0,N
1658398415.7,286047001.3,N
1658398435.5,286047000.2,N
1658398455.4,286047002.6,N
1658398475.2,286047011.9,Y
1658398495.0,286047000.6,P
1658398495.9,286047000.6,N
1658398515.8,286046996.7,P
1658398535.6,286046994.9,Y
1658398555.5,286046996.3,P
1658398575.3,286046995.2,P
1658398595.1,286046995.5,N
1658398615.9,286046996.7,N
1658398635.7,286047004.0,N
1658398655.5,286047006.8,N
1658398675.4,286047006.8,N
1658398695.2,286047005.7,N
1658398715.1,286047004.0,N
1658398716.0,286047004.0,N
1658398735.8,286047000.9,N
1658398755.6,286046997.8,N
1658398775.5,286046995.5,N
1658398795.3,286046995.5,N
1658398815.2,286046994.7,N
1658398835.9,286046991.9,N
1658398855.7,286046994.3,N
1658398875.6,286046990.3,N
1658398895.4,286046989.4,N
1658398915.2,286046989.0,N
1658398935.1,286046989.2,N
1658398936.0,286046989.2,N
1658398955.8,286046989.5,N
1658398975.7,286046988.2,N
1658398995.5,286046985.6,N
1658399015.3,286046985.9,N
1658399035.2,286046985.8,N
1658399055.0,286046986.1,N
1658399055.9,286046986.1,N
1658399075.7,286046986.0,N
1658399095.6,286046986.8,N
1658399115.4,286046986.2,N
1658399135.3,286046985.0,N
1658399155.1,286046984.9,N
1658399175.8,286046985.2,N
1658399195.7,286046984.7,N
1658399215.5,286046984.4,N
1658399235.4,286046982.2,N
1658399255.2,286046984.9,N
1658399275.0,286046984.3,Y
1658399275.9,286046984.3,P
1658399295.8,286046996.4,N
1658399315.6,286046995.5,N
1658399335.5,286046998.0,N
1658399355.3,286046995.0,N
1658399375.1,286046998.0,N
1658399395.9,286046997.8,N
1658399415.7,286046998.0,N
1658399435.5,286046995.0,N
1658399455.4,286046995.6,N
1658399475.2,286046996.5,N
1658399495.1,286046999.3,N
1658399496.0,286046999.3,N
1658399515.8,286046998.8,N
1658399535.6,286046998.3,N
1658399555.5,286046999.4,N
1658399575.3,286046999.5,N
1658399595.2,286046998.6,N
1658399615.9,286046998.4,N
1658399635.7,286047001.1,N
1658399655.6,286046997.4,N
1658399675.4,286046996.8,N
1658399695.2,286046997.5,N
1658399715.1,286046996.2,N
1658399716.0,286046996.2,N
1658399735.8,286046994.0,N
1658399755.7,286046991.9,N
1658399775.5,286046994.0,N
1658399795.3,286046994.2,N
1658399815.2,286046994.7,N
1658399835.0,286046990.1,Y
1658399835.9,286046990.1,P
1658399855.8,286046996.3,N
1658399875.6,286046994.0,N
1658399895.4,286046992.4,N
1658399915.3,286046992.7,Y
1658399935.1,286046996.7,P
1658399955.8,286046994.9,P
1658399975.7,286046998.0,N
1658399995.5,286046996.0,N
1658400015.4,286046995.3,Y
1658400035.2,286046999.0,P
1658400055.0,286046996.5,N
1658400055.9,286046996.5,N
1658400075.8,286046994.9,Y
1658400095.6,286046998.1,P
1658400115.5,286046998.2,P
1658400135.3,286046996.6,P
1658400155.1,286046998.8,N
1658400175.9,286046998.6,N
1658400195.7,286046998.3,N
1658400215.5,286047000.7,N
1658400235.4,286046998.2,N
1658400255.2,286047001.3,N
1658400275.1,286047003.0,N
1658400276.0,286047003.0,N
1658400295.8,286047007.2,Y
1658400315.6,286047007.2,P
1658400335.5,286047005.5,N
1658400355.3,286047005.6,N
1658400375.1,286047003.5,N
1658400395.9,286047003.5,N
1658400415.7,286047004.4,N
1658400435.6,286047004.4,N
1658400455.4,286047001.4,N
1658400475.2,286047007.6,Y
1658400495.1,286047005.8,P
1658400496.0,286047005.8,P
1658400515.8,286047003.0,P
1658400535.7,286047006.8,Y
1658400555.5,286047001.1,P
1658400575.3,286047002.1,N
1658400595.2,286047000.6,N
1658400615.0,286047000.4,N
1658400615.9,286047000.4,N
1658400635.8,286046998.6,N
1658400655.6,286046997.8,N
1658400675.4,286046996.6,N
1658400695.3,286046995.6,N
1658400715.1,286046994.5,N
1658400735.8,286046994.7,N
1658400755.7,286046996.4,N
1658400775.5,286046994.6,N
1658400795.4,286046993.1,N
1658400815.2,286046990.5,N
1658400835.0,286046991.9,N
1658400835.9,286046991.9,N
1658400855.8,286046989.1,N
1658400875.6,286046990.8,N
1658400895.5,286046991.5,N
1658400915.3,286046991.6,N
1658400935.1,286046991.4,N
1658400955.9,286046991.1,N
1658400975.7,286046989.8,N
1658400995.5,286046985.9,Y
1658401015.4,286046987.7,P
1658401035.2,286046988.4,P
1658401055.1,286046988.4,P
1658401056.0,286046988.4,Y
1658401075.8,286046994.9,P
1658401095.6,286046997.7,N
1658401115.5,286047000.4,N
1658401135.3,286047002.6,N
1658401155.1,286047002.2,N
1658401175.9,286046999.7,N
1658401195.7,286047002.2,N
